GW1410 Weather Reports


time (UTC)temp
F
wind
direction
speed
knots
gust
knots
rain 1hr
in
rain 24hr
in
rain mn
in
humidity
%
barometer
mb
20260504081541 61 200 2.6 14.8 0.13 0.13 0.13 80 1014.2
20260504044535 64 209 1.7 4.3 0.00 0.00 0.00 59 1012.6
20260504043017 63 188 2.6 7.8 0.00 0.00 0.00 59 1012.6
20260504041509 63 302 0.9 3.5 0.00 0.00 0.00 61 1012.6
20260504040044 63 151 0.9 5.2 0.00 0.00 0.00 61 1012.5
20260504040009 63 151 0.9 5.2 0.00 0.00 0.00 61 1012.5
20260504034541 62 198 1.7 6.1 0.00 0.00 0.00 61 1012.5
20260504033016 62 360 0.9 5.2 0.00 0.00 0.00 62 1012.5
20260504031516 62 174 0.9 3.5 0.00 0.00 0.00 62 1012.6
20260504030120 62 282 0.9 4.3 0.00 0.00 0.00 63 1012.5
20260504024559 62 163 0.9 2.6 0.00 0.00 0.00 63 1012.4
20260504023034 62 174 1.7 6.1 0.00 0.00 0.00 64 1012.3
20260504021533 62 298 0.9 4.3 0.00 0.00 0.00 65 1012.4
20260504020017 62 323 1.7 7.8 0.00 0.00 0.00 65 1012.2
20260504014516 62 298 0.9 3.5 0.00 0.00 0.00 64 1012.2
20260504013009 62 238 0.9 3.5 0.00 0.00 0.00 62 1012.3
20260504011505 62 109 0.9 4.3 0.00 0.00 0.00 61 1012.3
20260504010001 62 235 0.9 2.6 0.00 0.00 0.00 61 1012.4
20260504004604 62 199 0.0 3.5 0.00 0.00 0.00 63 1012.4
20260504003102 62 220 0.9 4.3 0.00 0.00 0.00 64 1012.5
20260504001607 62 188 0.0 1.7 0.00 0.00 0.00 65 1012.6
20260504000059 62 190 1.7 4.3 0.00 0.00 0.00 65 1012.6
20260503234557 63 290 2.6 5.2 0.00 0.00 0.00 65 1012.6
20260503233048 63 301 1.7 4.3 0.00 0.00 0.00 66 1012.5
20260503231552 63 320 0.9 7.0 0.00 0.00 0.00 66 1012.5
20260503230047 63 276 1.7 3.5 0.00 0.00 0.00 64 1012.6
20260503224546 63 284 0.9 2.6 0.00 0.00 0.00 63 1012.6
20260503223045 62 185 0.0 3.5 0.00 0.00 0.00 62 1012.7
20260503221545 63 189 0.0 4.3 0.00 0.00 0.00 63 1012.9
20260503220025 63 250 0.9 2.6 0.00 0.00 0.00 63 1013.0
20260503214524 63 306 1.7 7.8 0.00 0.00 0.00 63 1013.0
20260503213007 63 320 1.7 5.2 0.00 0.00 0.00 65 1013.1
20260503211504 63 283 0.9 5.2 0.00 0.00 0.00 66 1013.2
20260503210044 63 278 2.6 6.1 0.00 0.00 0.00 68 1013.3
20260503204553 63 276 2.6 8.7 0.00 0.00 0.00 70 1013.1
20260503203024 63 191 2.6 6.1 0.00 0.00 0.00 72 1013.1
20260503201524 64 309 2.6 6.1 0.00 0.00 0.00 72 1013.0
20260503200006 64 285 1.7 5.2 0.00 0.00 0.00 71 1013.2
20260503194505 64 269 0.9 4.3 0.00 0.00 0.00 70 1013.1
20260503193102 64 275 0.9 4.3 0.00 0.00 0.00 70 1012.9
20260503191550 64 236 0.9 3.5 0.00 0.00 0.00 69 1012.7
20260503190041 64 279 1.7 7.8 0.00 0.00 0.00 69 1012.5
20260503184524 64 294 0.9 4.3 0.00 0.00 0.00 70 1012.7
20260503183008 65 111 0.9 6.1 0.00 0.00 0.00 70 1012.6
20260503181504 64 233 1.7 7.8 0.00 0.00 0.00 70 1012.4
20260503180053 64 300 2.6 9.6 0.00 0.00 0.00 72 1012.1
20260503174541 64 291 0.9 7.0 0.00 0.00 0.00 74 1011.9
20260503173022 64 277 2.6 7.0 0.00 0.00 0.00 76 1011.7
20260503171532 64 280 2.6 9.6 0.00 0.00 0.00 78 1011.5
20260503140120 66 267 1.7 6.1 0.00 0.00 0.00 84 1009.8